Weather History for EGNX - January, 2014

Change the Weather History Date:

Thursday, January 30, 2014

  Actual Average Record
Temperature  
Mean Temperature 36 °F -  
Max Temperature 39 °F 44 °F 55 °F (2000)
Min Temperature 33 °F 34 °F 26 °F (2011)
Degree Days  
Heating Degree Days 29    
Moisture  
Dew Point 35 °F    
Average Humidity 93    
Maximum Humidity 100    
Minimum Humidity 87    
Precipitation  
Precipitation 0.00 in - - ()
Sea Level Pressure  
Sea Level Pressure 29.63 in    
Wind  
Wind Speed 11 mph ()    
Max Wind Speed 17 mph    
Max Gust Speed -    
Visibility 3.4 miles    
Events Rain , Snow    
Averages and records for this station are not official NWS values.
T = Trace of Precipitation, MM = Missing Value Source: Averaged Metar Reports

Daily Weather History Graph

Daily Weather History Graph

Search for Another Location

Airport or City:

Trip Planner

Search our weather history database for the weather conditions in past years. The results will help you decide how hot, cold, wet, or windy it might be!

Date:

Astronomy

Jan. 30, 2014 Rise Set
Actual Time 7:51 AM GMT 4:46 PM GMT
Civil Twilight 7:13 AM GMT 5:24 PM GMT
Nautical Twilight 6:32 AM GMT 6:05 PM GMT
Astronomical Twilight 5:51 AM GMT 6:46 PM GMT
Moon 7:02 AM GMT (1/30) 4:46 PM GMT (1/30)
Length of Visible Light 10h 10m
Length of Day
8h 54m
Waning Crescent, 0% of the Moon is Illuminated
Jan 30
Waning Crescent
Jan 30
New
Feb 6
First Quarter
Feb 14
Full
Feb 22
Last Quarter

Hourly Weather History & Observations

Time (GMT) Temp. Windchill Dew Point Humidity Pressure Visibility Wind Dir Wind Speed Gust Speed Precip Events Conditions
12:20 AM 37.4 °F 29.3 °F 33.8 °F 87% 29.62 in 6.2 mi ENE 12.7 mph - N/A   Mostly Cloudy
12:50 AM 37.4 °F 28.5 °F 33.8 °F 87% 29.62 in 6.2 mi ENE 15.0 mph - N/A   Mostly Cloudy
1:20 AM 37.4 °F 28.5 °F 33.8 °F 87% 29.62 in 6.2 mi ENE 15.0 mph - N/A   Mostly Cloudy
1:50 AM 35.6 °F 26.6 °F 33.8 °F 93% 29.62 in 6.2 mi ENE 13.8 mph - N/A   Mostly Cloudy
2:20 AM 35.6 °F 25.9 °F 33.8 °F 93% 29.62 in 6.2 mi ENE 16.1 mph - N/A   Mostly Cloudy
2:50 AM 35.6 °F 26.2 °F 32.0 °F 87% 29.62 in 6.2 mi ENE 15.0 mph - N/A   Mostly Cloudy
3:20 AM 35.6 °F 26.2 °F 32.0 °F 87% 29.62 in 6.2 mi ENE 15.0 mph - N/A   Mostly Cloudy
3:50 AM 35.6 °F 27.1 °F 32.0 °F 87% 29.62 in 6.2 mi ENE 12.7 mph - N/A   Mostly Cloudy
4:20 AM 35.6 °F 26.6 °F 32.0 °F 87% 29.62 in 6.2 mi ENE 13.8 mph - N/A   Mostly Cloudy
4:50 AM 35.6 °F 25.9 °F 32.0 °F 87% 29.62 in 6.2 mi ENE 16.1 mph - N/A   Mostly Cloudy
5:20 AM 35.6 °F 26.2 °F 32.0 °F 87% 29.62 in 6.2 mi ENE 15.0 mph - N/A   Mostly Cloudy
5:50 AM 35.6 °F 25.9 °F 32.0 °F 87% 29.62 in 6.2 mi ENE 16.1 mph - N/A   Mostly Cloudy
6:20 AM 35.6 °F 25.5 °F 32.0 °F 87% 29.62 in 6.2 mi ENE 17.3 mph - N/A   Mostly Cloudy
6:50 AM 35.6 °F 26.6 °F 32.0 °F 87% 29.62 in 6.2 mi ENE 13.8 mph - N/A   Mostly Cloudy
7:20 AM 35.6 °F 26.6 °F 32.0 °F 87% 29.62 in 6.2 mi ENE 13.8 mph - N/A   Mostly Cloudy
7:50 AM 35.6 °F 26.6 °F 32.0 °F 87% 29.65 in 4.3 mi ENE 13.8 mph - N/A   Mostly Cloudy
8:20 AM 35.6 °F 27.1 °F 32.0 °F 87% 29.65 in 4.3 mi ENE 12.7 mph - N/A   Mostly Cloudy
8:50 AM 35.6 °F 26.2 °F 32.0 °F 87% 29.62 in 4.3 mi ENE 15.0 mph - N/A   Mostly Cloudy
9:20 AM 35.6 °F 26.2 °F 32.0 °F 87% 29.62 in 5.0 mi ENE 15.0 mph - N/A   Mostly Cloudy
9:50 AM 35.6 °F 27.5 °F 32.0 °F 87% 29.65 in 3.7 mi NE 11.5 mph - N/A   Overcast
10:20 AM 35.6 °F 26.2 °F 32.0 °F 87% 29.65 in 3.7 mi ENE 15.0 mph - N/A Snow Light Snow
10:50 AM 33.8 °F 23.5 °F 32.0 °F 93% 29.65 in 3.7 mi ENE 16.1 mph - N/A Snow Light Snow Showers
11:20 AM 33.8 °F 24.8 °F 33.8 °F 100% 29.62 in 3.7 mi ENE 12.7 mph - N/A   Overcast
11:50 AM 33.8 °F 25.3 °F 33.8 °F 100% 29.62 in 2.8 mi NE 11.5 mph - N/A   Haze
12:20 PM 35.6 °F 27.5 °F 33.8 °F 93% 29.62 in 2.8 mi NE 11.5 mph - N/A Snow Light Snow Showers
12:50 PM 35.6 °F 27.5 °F 33.8 °F 93% 29.62 in 2.8 mi NE 11.5 mph - N/A   Light Drizzle
1:20 PM 35.6 °F 28.6 °F 33.8 °F 93% 29.62 in 2.8 mi NNE 9.2 mph - N/A   Light Drizzle
1:50 PM 35.6 °F 28.0 °F 33.8 °F 93% 29.62 in 2.8 mi NE 10.4 mph - N/A Snow Light Snow Showers
2:20 PM 35.6 °F 28.0 °F 33.8 °F 93% 29.62 in 2.8 mi NE 10.4 mph - N/A Snow Light Snow Showers
2:50 PM 35.6 °F 28.6 °F 33.8 °F 93% 29.62 in 1.2 mi NE 9.2 mph - N/A Snow Light Snow
3:20 PM 35.6 °F 28.0 °F 33.8 °F 93% 29.62 in 1.2 mi NE 10.4 mph - N/A Rain , Snow Light Rain
3:50 PM 35.6 °F 28.0 °F 33.8 °F 93% 29.62 in 1.2 mi NNE 10.4 mph - N/A Rain , Snow Light Rain
4:20 PM 35.6 °F 28.0 °F 33.8 °F 93% 29.62 in 1.1 mi NNE 10.4 mph - N/A Rain , Snow Light Rain
4:50 PM 35.6 °F 29.2 °F 35.6 °F 100% 29.62 in 1.1 mi NNE 8.1 mph - N/A Rain , Snow Light Rain
5:20 PM 35.6 °F 29.2 °F 35.6 °F 100% 29.62 in 1.1 mi NNE 8.1 mph - N/A Rain Light Rain
5:50 PM 35.6 °F 29.9 °F 35.6 °F 100% 29.62 in 0.9 mi NE 6.9 mph - N/A Rain Light Rain
6:20 PM 37.4 °F 32.1 °F 37.4 °F 100% 29.62 in 0.7 mi NE 6.9 mph - N/A Rain Light Rain
6:50 PM 37.4 °F 30.8 °F 37.4 °F 100% 29.65 in 0.6 mi ENE 9.2 mph - N/A Rain Light Rain
7:20 PM 39.2 °F 33.6 °F 37.4 °F 93% 29.65 in 0.9 mi ENE 8.1 mph - N/A Rain Light Rain
7:50 PM 39.2 °F 34.2 °F 39.2 °F 100% 29.65 in 0.9 mi ENE 6.9 mph - N/A Rain Light Rain
8:20 PM 39.2 °F 34.2 °F 39.2 °F 100% 29.62 in 0.9 mi East 6.9 mph - N/A Rain Light Rain
8:50 PM 39.2 °F 35.0 °F 39.2 °F 100% 29.65 in 1.2 mi ENE 5.8 mph - N/A Rain Light Rain
9:20 PM 39.2 °F 35.0 °F 39.2 °F 100% 29.65 in 1.1 mi East 5.8 mph - N/A Rain Light Rain
9:50 PM 39.2 °F 35.0 °F 39.2 °F 100% 29.65 in 1.1 mi ENE 5.8 mph - N/A Rain Light Rain
10:20 PM 39.2 °F 34.2 °F 39.2 °F 100% 29.65 in 1.6 mi ENE 6.9 mph - N/A   Light Drizzle
10:50 PM 39.2 °F 33.6 °F 39.2 °F 100% 29.65 in 1.9 mi ENE 8.1 mph - N/A   Mostly Cloudy
11:20 PM 39.2 °F 33.6 °F 39.2 °F 100% 29.65 in 1.6 mi East 8.1 mph - N/A   Mostly Cloudy
11:50 PM 39.2 °F 34.2 °F 39.2 °F 100% 29.65 in 1.2 mi East 6.9 mph - N/A   Mostly Cloudy